7 * 24
多渠道服务支持
STARLINK-34835是美国于北京时间2025年8月27日发射的星链卫星,隶属于SpaceX公司主导的星链项目。星链项目旨在构建全球卫星互联网星座,为全球范围内用户提供高速低延迟的宽带互联网服务,该卫星的发射进一步扩充了星链星座的在轨卫星规模。
美国
(US)
| 数据来源 | 国际轨道数据 |
| 星历时间: | 2026-09-12T11:47:18+0800 22小时前 查看轨道信息 |
| 半长轴: | 6840.83km |
| 偏心率: | 0.0001423 |
| 轨道倾角: | 53.158° |
| 近地点辐角 | 84.378° |
| 升交点赤经 | 58.649° |
| 平近点角 | 275.739° |
| 近地点: | 461.719km |
| 远地点: | 463.667km |
| 周期: | 93.848分钟 |
| 每日圈数: | 15.344035 |